[Iaude] MPEC T07: 2016 TA [a=2.37,e=0.89,i=7.2,H=26.2]

mpec at si.edu mpec at si.edu
Sat Oct 1 22:43:43 EDT 2016


M.P.E.C. 2016-T07                                Issued 2016 Oct. 2, 02:39 UT
 
     The Minor Planet Electronic Circulars contain information on unusual
         minor planets and routine data on comets.  They are published
    on behalf of Division F of the International Astronomical Union by the
          Minor Planet Center, Smithsonian Astrophysical Observatory,
                          Cambridge, MA 02138, U.S.A.

             Prepared using the Tamkin Foundation Computer Network

                              MPC at CFA.HARVARD.EDU
            URL http://www.minorplanetcenter.net/    ISSN 1523-6714


                                    2016 TA
 
Observations:
     K16T00A* C2016 10 01.32508 01 17 24.67 +23 38 57.4          19.1 VqET007703
     K16T00A  C2016 10 01.33711 01 17 02.84 +23 51 44.7          18.7 VqET007703
     K16T00A  C2016 10 01.34313 01 16 51.81 +23 58 08.7          18.6 VqET007703
     K16T00A  C2016 10 01.37319 01 15 53.79 +24 31 42.3          18.5 VqET007I52
     K16T00A  C2016 10 01.37349 01 15 53.19 +24 32 03.6          18.6 VqET007I52
     K16T00A  C2016 10 01.37380 01 15 52.58 +24 32 23.9          18.7 VqET007I52
     K16T00A  C2016 10 01.43890 01 13 33.50 +25 51 50.7          18.3 VqET007I52
     K16T00A  C2016 10 01.43920 01 13 32.88 +25 52 14.1          18.3 VqET007I52
     K16T00A  C2016 10 01.43950 01 13 32.15 +25 52 37.3          18.2 VqET007I52
     K16T00A  C2016 10 01.43980 01 13 31.48 +25 53 00.9          18.4 VqET007I52
     K16T00A  C2016 10 01.49150 01 11 26.46 +27 03 54.5          18.6 VqET007I52
     K16T00A  C2016 10 01.49210 01 11 24.93 +27 04 47.1          18.1 VqET007I52
     K16T00A  C2016 10 01.49240 01 11 24.17 +27 05 13.2          18.5 VqET007I52
     K16T00A  C2016 10 01.50154 01 11 00.60 +27 18 34.9          17.9 VqET007I52
     K16T00A  C2016 10 01.50184 01 10 59.82 +27 19 01.5          18.1 VqET007I52
     K16T00A  C2016 10 01.50215 01 10 59.04 +27 19 28.9          16.8 VqET007I52
     K16T00A  C2016 10 01.50246 01 10 58.20 +27 19 56.0          18.2 VqET007I52
     K16T00A KC2016 10 01.79282500 52 47.57 +37 45 40.1          18.3 RqET007J95
     K16T00A KC2016 10 01.79603000 52 26.58 +37 55 42.7          17.5 RqET007J95
     K16T00A KC2016 10 01.79949400 52 03.54 +38 06 42.2          17.7 RqET007J95
     K16T00A KC2016 10 01.96668600 22 12.01 +49 25 58.5          17.2 RqET007J95
     K16T00A KC2016 10 01.96928400 21 27.91 +49 39 10.5          17.7 RqET007J95
     K16T00A KC2016 10 01.97217100 20 37.92 +49 53 56.7          17.2 RqET007J95
     K16T00A KC2016 10 01.97451800 19 56.65 +50 06 02.5          17.3 RqET007J95
     K16T00A KC2016 10 02.04924723 50 37.69 +57 06 55.1          16.9 RqET007J95
     K16T00A KC2016 10 02.05153723 49 26.02 +57 20 48.5          17.0 RqET007J95
     K16T00A KC2016 10 02.05358023 48 20.90 +57 33 14.0          17.4 RqET007J95
     K16T00A KC2016 10 02.05560923 47 15.04 +57 45 36.7          17.4 RqET007J95
 
Observer details:
703 Catalina Sky Survey.  Observer R. G. Matheny.  Measurers E. J. Christensen,
    D. C. Fuls, A. R. Gibbs, A. D. Grauer, J. A. Johnson, R. A. Kowalski,
    S. M. Larson, G. J. Leonard, R. G. Matheny, R. L. Seaman, F. C. Shelly.
    0.68-m Schmidt + CCD.
I52 Steward Observatory, Mt. Lemmon Station.  Observer A. R. Gibbs.  Measurers
    E. J. Christensen, D. C. Fuls, A. R. Gibbs, A. D. Grauer, J. A. Johnson,
    R. A. Kowalski, S. M. Larson, G. J. Leonard, R. G. Matheny, R. L. Seaman,
    F. C. Shelly.  1.0-m reflector + CCD.
J95 Great Shefford.  Observer P. Birtwhistle.  0.40-m f/6.0 Schmidt-Cassegrain
    + CCD.
 
Orbital elements:
2016 TA                                                  Earth MOID = 0.0059 AU
Epoch 2016 July 31.0 TT = JDT 2457600.5                 MPC
M 332.19029              (2000.0)            P               Q
n   0.26991538     Peri.  127.44193     -0.69491280     -0.71894751
a   2.3712879      Node     6.63626     +0.61371474     -0.60347593
e   0.8899784      Incl.    7.21525     +0.37476716     -0.34486415
P   3.65           H   26.2           G   0.15           U   6
Residuals in seconds of arc
161001 703  1.2-  0.2-    161001 I52  0.1-  0.0     161001 J95  0.3-  0.4+
161001 703  0.6-  1.6+    161001 I52  0.1-  0.5+    161001 J95  0.1-  0.4+
161001 703 (1.2+  3.8-)   161001 I52  0.0   0.6+    161001 J95  0.7-  0.2+
161001 I52  0.2-  0.7+    161001 I52  0.4+  0.3+    161001 J95  0.4-  0.6+
161001 I52  0.2-  1.4+    161001 I52  0.5+  0.4+    161002 J95  0.2-  0.1-
161001 I52  0.1-  0.3+    161001 I52  0.8+  0.3+    161002 J95  0.3+  0.1+
161001 I52  0.2-  0.6+    161001 I52  0.4+  0.1-    161002 J95  0.6+  0.1-
161001 I52  0.6+  0.6+    161001 J95  0.0   0.5-    161002 J95  0.4+  0.2-
161001 I52  0.1+  0.4+    161001 J95  0.0   1.3-
161001 I52  0.3+  0.6+    161001 J95  0.0   0.2-

Ephemeris:
2016 TA                  a,e,i = 2.37, 0.89, 7                   q = 0.2609
Date    TT    R. A. (2000) Decl.     Delta      r     Elong.  Phase     V
2016 09 02    01 32 38.9 +05 51 03   0.5841  1.4857   136.0    28.1    27.1
...
2016 09 17    01 38 12.8 +06 51 13   0.2861  1.2587   148.9    24.4    25.1
...
2016 09 25    01 38 22.5 +08 13 45   0.1348  1.1276   156.3    21.0    23.1
...
2016 10 01    01 23 49.9 +19 19 41   0.02416 1.0238   159.1    20.4    19.2
2016 10 02    00 12 07.5 +52 17 16   0.0077191.0060   131.1    48.6    17.5
2016 10 03    14 11 22.4 +16 35 37   0.01472 0.9880    31.1   148.4    25.2
...
2016 10 09    13 44 51.6 -03 21 26   0.1248  0.8771    11.9   166.4
...
2016 10 17    13 41 42.2 -04 51 13   0.2787  0.7196     5.5   172.3
...
2016 11 01    13 42 25.1 -06 47 42   0.6360  0.3996    13.0   145.9    30.9

A. U. Tomatic                (C) Copyright 2016 MPC           M.P.E.C. 2016-T07




More information about the Iaude mailing list